Location: Leuk
(46.3174°N, 7.6341°E)
Time: 14:58:39
(UTC+00:00)

USA 238 - Pass Details

Date: 09 March 2021
Orbit: 994 x 1218 km, 63.4° (Epoch: 11 April)

Event Time Altitude Azimuth Distance (km) Brightness Sun altitude
Rises 03:04:26 0° 320° (NW) 3,941 6.6 -29.2°
Reaches altitude 10° 03:07:04 10° 322° (NW) 3,012 5.9 -28.8°
Maximum altitude 03:14:20 80° 50° (NE) 1,190 3.9 -27.7°
Drops below altitude 10° 03:21:54 10° 138° (SE) 3,135 6.3 -26.5°
Sets 03:24:41 0° 139° (SE) 4,111 7.0 -26.1°
